Wind_Speed
23 24 22 22 19 16 15 17 17 17 16 16 16 10 8 7 8 10 10 11 24 4 7 13 13 10 12 13 18 10 12 16 23 21 17 10 8 12 3 11 6 6 4 5 7
24 24 21 19 18 16 15 14 13 14 11 13 11 8 7 7 11 18 14 18 22 14 9 19 17 14 11 14 10 13 15 23 19 17 9 12 12 12 8 11 10 8 6 4 7
25 22 20 18 17 14 13 12 11 9 10 9 9 10 6 7 15 14 22 22 23 20 13 15 21 16 14 11 17 15 20 20 18 4 5 11 14 10 11 11 13 12 9 4 6
23 21 20 18 16 13 11 11 10 9 8 8 8 10 6 7 6 14 22 27 26 21 16 12 20 19 16 15 18 12 22 17 15 4 4 12 12 12 12 6 3 1 4 3 5
26 22 19 16 15 13 11 11 10 8 7 7 6 8 6 11 14 4 10 21 22 24 22 17 20 19 19 18 15 15 10 16 8 6 9 13 15 13 12 7 4 4 4 5 4
28 26 20 17 15 12 10 10 9 9 7 7 6 8 11 14 10 8 4 11 23 24 25 24 17 19 11 9 19 11 13 10 11 8 7 10 13 10 11 9 11 10 9 9 9
25 25 21 15 13 7 9 8 7 5 7 7 5 8 12 14 6 6 14 8 23 29 22 25 18 18 6 8 10 13 17 9 14 12 7 9 14 19 15 9 12 13 11 11 11
27 25 22 12 10 5 8 8 9 9 7 5 4 7 7 15 20 5 7 11 10 26 24 17 17 15 6 4 9 12 12 14 13 12 8 10 14 18 19 17 19 17 14 14 14
28 26 18 6 4 4 6 6 9 10 8 5 5 8 8 4 16 19 12 11 14 19 18 15 11 14 8 12 11 13 12 18 13 18 10 14 9 13 10 8 11 11 11 11 12
28 26 17 3 2 3 4 6 2 6 6 5 5 5 11 9 15 17 10 9 18 18 12 8 7 12 12 14 15 18 19 19 17 10 15 18 15 11 6 8 12 12 12 12 12
29 26 15 6 4 3 0 1 4 3 6 2 3 7 7 5 13 13 10 7 19 17 12 12 8 19 25 23 17 13 17 16 12 7 8 13 15 14 11 13 14 14 14 13 13
28 21 17 5 7 3 1 3 8 5 2 2 5 6 11 8 10 11 8 3 13 16 17 7 9 18 19 18 16 9 13 14 4 10 6 10 12 11 14 16 15 14 13 12 9
24 18 10 13 8 6 4 5 4 7 2 5 4 7 6 5 9 8 3 5 9 21 19 15 7 16 15 15 13 13 13 13 6 9 8 5 13 16 8 6 4 4 6 4 3
23 19 15 1 3 4 4 3 3 4 2 1 2 2 3 5 5 13 7 2 3 17 16 9 7 15 18 19 15 12 4 7 6 9 6 8 3 9 10 7 8 8 5 5 4
21 17 11 5 1 3 1 3 3 3 2 2 3 1 4 3 11 5 6 5 3 9 3 5 15 17 16 17 15 4 10 7 3 4 4 8 5 8 11 11 10 8 7 5 3
22 16 9 6 1 2 2 3 4 3 8 5 3 4 7 6 4 6 3 4 5 7 9 4 4 4 3 2 8 13 13 8 3 1 4 10 8 10 11 14 13 9 7 4 3
25 13 7 4 4 2 4 3 2 6 1 6 4 4 5 4 4 6 5 4 4 4 3 4 4 4 2 11 8 8 13 4 4 4 4 3 5 4 8 12 15 10 4 3 0
20 7 6 6 2 2 2 2 9 5 7 4 5 9 4 2 4 1 6 7 3 6 3 2 3 2 4 2 7 12 15 3 6 6 7 4 6 0 11 6 12 7 2 1 0
9 2 4 3 3 4 3 6 3 2 1 5 7 5 3 5 5 3 1 4 5 2 2 4 4 1 3 3 4 3 6 2 2 2 1 6 5 5 8 8 11 7 3 1 2
7 5 2 5 5 5 1 4 2 1 2 4 2 3 6 5 3 4 2 3 3 2 3 4 6 6 8 7 0 3 3 2 2 4 5 6 5 4 13 12 14 8 3 2 1
4 3 2 2 4 1 4 1 4 2 2 3 2 2 3 4 2 2 1 3 1 3 1 4 3 5 5 7 9 5 4 3 3 2 3 3 3 6 12 15 13 2 1 2 2
5 3 0 5 1 1 4 3 1 2 1 2 2 3 3 4 4 2 3 2 3 1 3 3 4 4 2 2 4 5 6 9 4 5 1 4 3 3 12 10 4 3 3 1 0
6 3 2 3 0 3 4 4 1 1 2 2 2 2 2 4 2 4 3 2 2 1 2 4 4 4 2 3 3 5 8 7 2 3 5 3 4 7 9 5 5 4 2 2 2
4 3 1 1 2 2 4 4 4 2 1 0 2 2 5 4 1 5 5 2 1 2 5 1 2 2 2 3 3 5 10 11 8 4 5 7 7 10 10 4 2 1 2 2 2
2 2 2 2 1 1 2 1 3 4 2 3 3 4 3 3 4 3 5 5 3 3 1 2 1 1 2 1 2 3 7 13 13 11 6 2 10 11 2 2 2 3 1 3 3
4 3 5 4 4 4 2 2 1 2 2 4 3 5 5 2 2 4 7 7 6 8 5 3 2 1 3 3 6 9 11 11 15 15 17 14 13 10 10 0 3 3 2 3 3
6 3 3 1 2 4 1 2 1 1 1 3 1 3 4 2 2 3 2 2 1 6 9 5 5 3 1 0 5 10 19 19 15 11 15 14 12 7 3 2 3 4 1 1 1
Wind_Direction
316 312 310 311 309 301 307 302 296 289 278 283 249 256 279 289 277 276 247 224 214 244 190 188 188 208 214 212 219 228 241 232 228 231 238 245 214 218 273 263 195 203 344 61 99
317 316 314 310 309 304 307 305 300 294 291 280 240 246 272 301 272 250 224 210 202 196 214 182 182 195 198 211 195 215 221 222 231 235 219 234 223 225 209 217 215 202 152 101 132
321 319 314 308 307 304 305 308 307 304 298 287 258 244 268 292 279 243 213 212 201 205 223 201 182 187 210 210 209 213 230 230 239 358 159 206 226 237 213 215 223 212 178 151 158
324 318 313 308 304 303 302 307 312 305 297 294 268 234 247 267 248 195 183 199 192 194 199 207 188 191 205 204 209 235 224 248 230 178 184 228 224 207 231 227 232 117 71 239 192
322 316 313 309 302 291 291 295 302 303 303 294 269 218 221 231 251 103 160 184 182 185 193 204 195 190 204 205 210 219 227 223 263 153 220 228 226 222 213 168 158 183 240 254 247
321 315 307 296 296 286 279 291 297 298 305 296 260 207 230 239 250 184 137 182 194 190 191 207 207 198 223 207 211 206 229 215 208 194 199 210 221 211 234 223 214 229 245 247 248
334 328 313 280 285 279 284 282 295 281 295 292 247 223 238 233 209 165 237 251 198 192 192 198 205 201 216 197 197 256 208 214 211 196 209 220 237 225 240 224 226 232 229 234 247
344 337 322 272 272 265 276 278 280 264 276 260 225 240 250 238 245 217 216 219 190 189 193 190 224 198 240 189 184 202 213 211 207 211 219 190 241 218 222 234 241 247 249 246 242
348 346 334 310 265 260 251 289 291 269 261 209 208 217 248 188 220 211 211 195 180 186 188 180 233 196 195 189 184 205 204 210 206 196 192 201 248 209 179 208 239 239 237 243 251
351 349 342 181 225 212 238 308 351 114 164 175 240 215 242 220 181 180 186 237 173 167 161 186 204 199 198 198 200 197 216 204 204 189 223 220 239 255 252 242 245 252 250 245 247
358 360 5 167 158 202 266 173 198 158 205 329 345 223 37 113 161 157 143 154 172 161 178 177 190 197 196 205 215 215 204 239 208 140 204 228 244 235 223 240 249 255 255 253 253
4 17 27 59 155 196 57 335 33 354 189 278 292 295 287 280 171 124 129 153 178 174 172 167 212 207 202 208 214 244 194 205 165 152 209 237 236 244 242 247 251 258 265 267 280
3 4 32 42 125 103 54 48 354 346 31 13 6 283 289 229 152 132 101 60 199 178 182 184 189 217 198 206 192 201 200 198 234 182 221 277 257 235 211 249 238 246 250 237 216
354 356 2 206 311 126 83 4 346 15 176 3 342 284 255 212 89 90 64 27 328 184 178 186 204 192 192 191 196 186 197 162 174 193 218 195 255 174 171 182 178 161 151 142 136
345 341 347 41 62 97 11 337 326 219 116 88 246 270 179 175 137 100 111 158 84 115 149 180 188 192 185 190 188 142 149 145 174 239 303 191 248 131 165 184 174 152 144 145 123
334 323 331 295 341 152 147 280 251 239 32 35 60 82 105 113 62 109 37 113 57 61 65 24 39 8 356 88 187 135 126 113 106 266 244 227 234 173 182 186 169 157 150 134 101
329 307 281 299 330 253 305 265 247 36 301 347 47 95 78 86 94 120 178 134 113 130 158 24 24 26 336 108 135 164 171 152 193 196 235 139 215 321 138 151 169 161 131 101 141
332 298 262 263 277 254 278 265 50 355 68 220 101 90 70 74 30 75 156 114 134 95 105 123 131 39 309 115 177 188 198 247 208 195 174 156 221 163 151 150 160 143 85 146 296
345 272 266 278 246 206 248 50 30 296 47 142 157 104 108 114 137 162 344 74 119 207 105 149 87 120 300 106 151 181 211 13 304 65 200 180 198 157 162 176 182 190 281 295 316
326 270 253 303 162 207 26 88 160 260 9 328 49 289 138 114 138 139 145 47 96 48 314 102 109 146 133 113 219 243 181 180 212 206 215 179 203 151 183 184 180 204 262 283 292
294 271 106 133 188 198 78 78 119 51 338 340 51 126 88 130 162 83 45 113 40 77 8 112 107 139 158 209 166 164 205 225 288 290 285 195 133 55 157 160 166 204 283 294 288
303 278 75 158 288 148 120 164 317 356 350 60 91 73 157 160 156 150 140 43 84 137 113 33 95 140 150 94 315 316 239 206 228 193 273 321 93 185 133 151 186 280 280 327 324
315 290 231 216 262 105 132 143 268 243 30 10 75 21 177 157 150 139 133 25 68 11 133 159 133 124 181 201 197 226 223 234 268 340 205 239 122 153 150 168 207 241 299 342 16
296 317 162 182 346 178 176 167 179 173 185 360 119 166 162 159 10 158 140 129 105 49 22 354 161 292 260 60 115 198 213 212 194 209 209 231 111 170 181 219 196 280 334 346 353
358 26 4 310 124 212 226 186 221 205 207 213 175 252 203 167 174 160 140 144 169 141 145 279 190 83 284 63 144 232 217 210 213 221 233 307 228 175 164 275 290 305 297 325 327
1 352 330 290 296 236 166 185 243 167 252 182 256 185 196 224 251 179 187 188 184 182 197 177 153 134 273 232 251 257 247 236 227 228 246 255 267 270 270 238 269 319 349 302 346
9 313 309 360 263 267 175 148 150 314 155 276 139 198 203 64 25 350 139 220 200 192 199 194 156 184 236 212 282 264 233 220 219 215 222 228 247 227 201 277 310 293 220 202 80
Height
792 788 785 782 780 777 775 774 772 771 770 768 769 771 772 771 770 771 772 770 772 775 775 778 782 784 784 781 780 779 785 780 770 769 768 757 768 765 766 768 769 767 769 777 779
789 785 781 779 776 775 772 771 769 767 766 766 765 768 769 769 768 764 765 767 770 773 775 774 776 780 781 778 779 780 776 767 756 756 768 765 771 764 775 772 770 771 774 777 780
784 781 778 775 773 771 770 768 766 765 764 764 764 766 767 767 762 749 758 761 766 771 773 772 775 778 779 776 775 773 770 761 755 763 764 771 773 763 772 773 767 770 768 775 780
782 777 774 771 770 768 767 766 764 763 763 762 762 763 765 765 755 739 751 756 761 768 772 771 770 775 776 776 770 773 766 759 756 767 774 774 769 770 770 767 763 767 774 777 775
779 775 771 769 767 766 764 763 762 762 761 761 761 762 764 761 750 749 749 753 758 763 767 768 766 768 772 770 769 774 762 764 765 772 774 771 770 770 770 768 772 775 778 776 775
775 771 767 765 763 762 761 761 760 760 760 760 760 761 762 759 747 749 749 752 755 760 762 765 762 764 764 765 768 768 767 768 768 773 776 776 773 772 770 768 773 775 776 775 775
771 765 761 760 759 759 760 759 759 759 758 758 759 760 758 750 747 748 749 751 752 757 758 762 764 764 764 769 765 771 772 772 770 773 777 778 780 775 770 768 771 771 771 773 774
768 762 756 754 756 757 758 758 758 757 757 757 757 758 753 748 748 750 752 751 750 756 759 764 765 765 767 767 771 776 774 782 770 775 774 780 777 765 764 768 769 765 765 766 768
766 759 753 751 754 755 756 756 755 754 755 756 758 757 747 743 745 747 751 750 751 756 759 765 768 766 768 773 778 774 779 772 770 766 773 780 774 761 763 767 767 764 763 764 765
765 758 752 750 753 755 755 755 754 753 755 756 756 757 744 738 740 743 748 749 749 755 763 770 773 769 767 767 772 770 776 760 765 770 769 773 774 762 766 767 768 765 762 762 764
767 759 753 751 753 755 755 756 756 754 753 745 745 744 741 740 743 744 747 748 747 757 761 765 769 765 755 750 751 754 767 762 758 770 773 773 769 766 764 766 766 764 762 761 759
770 763 757 754 754 754 756 754 757 759 750 751 750 750 749 746 740 744 748 750 749 757 755 770 768 756 753 753 754 761 763 766 765 770 777 767 772 766 765 763 761 760 759 759 759
773 767 762 758 756 760 759 760 760 759 759 752 755 752 747 745 738 746 751 757 751 751 755 760 762 756 755 757 761 761 766 768 771 776 774 775 772 766 763 766 767 769 767 766 766
774 768 763 760 762 761 760 760 760 760 753 759 756 752 746 741 744 749 755 762 763 752 757 765 755 767 757 759 757 764 763 766 777 776 773 770 762 754 764 770 768 767 766 767 769
774 768 764 759 760 762 764 760 761 762 728 764 761 752 746 744 746 754 759 760 757 761 770 769 763 759 757 756 753 765 768 775 779 776 774 771 771 752 762 771 768 767 769 770 770
772 768 764 761 759 760 761 761 760 751 735 753 749 746 740 741 746 753 756 759 761 765 765 772 769 770 762 756 755 768 775 779 781 780 785 763 764 759 761 759 765 767 767 768 769
768 764 762 760 758 758 758 757 748 736 758 759 749 748 746 747 750 752 756 753 760 768 772 778 782 779 776 771 771 769 773 785 789 791 775 773 777 741 745 746 758 764 766 766 767
764 761 760 759 759 757 757 751 735 755 750 751 747 746 750 753 755 750 745 753 758 760 764 766 777 792 783 778 777 772 764 764 772 766 762 786 773 747 748 754 754 763 765 764 765
762 761 760 757 757 758 756 749 755 758 745 743 740 742 746 747 751 746 740 741 746 747 757 762 774 788 786 782 779 789 782 770 768 767 764 761 756 758 757 762 759 763 763 763 764
764 761 757 755 755 756 746 756 756 751 744 740 739 740 736 740 739 738 740 744 746 747 744 749 769 783 781 785 789 786 768 779 777 775 761 750 744 739 757 760 762 763 760 762 763
764 755 755 754 755 744 758 763 748 748 747 745 741 739 735 742 739 739 743 748 744 748 744 745 750 778 773 772 770 785 777 770 764 767 757 742 743 736 747 754 759 759 759 760 762
764 756 754 754 748 741 747 756 758 746 745 744 744 745 740 744 744 742 742 741 747 745 746 752 756 768 767 768 768 764 757 759 763 772 768 766 753 743 745 751 755 758 758 757 760
763 757 754 753 745 746 749 748 749 745 745 743 744 745 746 745 748 746 747 752 750 747 747 750 760 774 774 770 769 768 762 761 760 770 775 759 750 746 750 754 753 755 754 755 760
768 763 749 749 749 741 744 744 745 750 746 745 745 744 744 745 744 749 749 754 755 752 757 752 756 761 755 758 755 768 762 763 771 774 759 755 747 751 752 749 749 750 752 756 759
770 764 770 749 747 747 746 746 745 745 746 744 745 742 741 744 745 747 748 755 755 759 754 753 766 773 760 761 764 767 764 764 771 766 760 746 746 742 743 746 746 748 751 756 758
779 781 772 756 756 748 752 744 745 746 747 743 743 740 740 741 740 745 746 747 748 755 754 756 773 771 771 764 766 768 761 758 762 762 757 754 753 742 741 743 745 747 753 757 759
785 784 782 759 751 748 740 743 746 748 747 745 740 739 742 743 743 743 740 741 743 748 752 755 767 771 761 766 765 761 750 751 751 751 753 758 748 743 743 744 747 751 754 758 762